Glasgow, United Kingdom

1:22 AM BST on July 28, 2017 (GMT +0100)
Glasgow

Weather History for EGPF - October, 2013

Change the Weather History Date:

Wednesday, October 16, 2013

  Actual Average Record
Temperature  
Mean Temperature 40 °F -  
Max Temperature 51 °F 50 °F 60 °F (1997)
Min Temperature 30 °F 39 °F 30 °F (2002)
Degree Days  
Heating Degree Days 24    
Moisture  
Dew Point 42 °F    
Average Humidity 94    
Maximum Humidity 100    
Minimum Humidity 82    
Precipitation  
Precipitation 0.00 in - - ()
Sea Level Pressure  
Sea Level Pressure 29.76 in    
Wind  
Wind Speed 5 mph ()    
Max Wind Speed 14 mph    
Max Gust Speed -    
Visibility 5.0 miles    
Events Fog , Rain    
Averages and records for this station are not official NWS values.
T = Trace of Precipitation, MM = Missing Value Source: Averaged Metar Reports

Daily Weather History Graph

Daily Weather History Graph

Search for Another Location

Airport or City:

Trip Planner

Search our weather history database for the weather conditions in past years. The results will help you decide how hot, cold, wet, or windy it might be!

Date:

Astronomy

Oct. 16, 2013 Rise Set
Actual Time 7:50 AM BST 6:14 PM BST
Civil Twilight 7:13 AM BST 6:52 PM BST
Nautical Twilight 6:30 AM BST 7:34 PM BST
Astronomical Twilight 5:47 AM BST 8:17 PM BST
Moon 5:05 PM BST (10/16) 4:38 AM BST (10/16)
Length of Visible Light 11h 38m
Length of Day
10h 23m
Waxing Gibbous, 93% of the Moon is Illuminated
Oct 16
Waxing Gibbous
Oct 19
Full
Oct 27
Last Quarter
Nov 3
New
Nov 10
First Quarter

Hourly Weather History & Observations

Time (BST) Temp. Windchill Dew Point Humidity Pressure Visibility Wind Dir Wind Speed Gust Speed Precip Events Conditions
12:20 AM 35.6 °F 32.8 °F 35.6 °F 100% 29.98 in 0.2 mi Variable 3.5 mph - N/A Fog Fog
12:50 AM 35.6 °F - 35.6 °F 100% 29.98 in 0.1 mi Variable 2.3 mph - N/A Fog Fog
1:20 AM 35.6 °F - 33.8 °F 93% 29.98 in 1.9 mi Variable 2.3 mph - N/A   Mostly Cloudy
1:50 AM 35.6 °F - 35.6 °F 100% 29.95 in 4.3 mi Calm Calm - N/A   Unknown
2:20 AM 35.6 °F - 35.6 °F 100% 29.95 in 5.0 mi Calm Calm - N/A   Unknown
2:50 AM 33.8 °F - 33.8 °F 100% 29.95 in 5.0 mi Calm Calm - N/A   Unknown
3:20 AM 33.8 °F - 33.8 °F 100% 29.95 in 5.6 mi Calm Calm - N/A   Unknown
3:50 AM 32.0 °F - 32.0 °F 100% 29.95 in 5.6 mi East 2.3 mph - N/A Fog Patches of Fog
4:20 AM 35.6 °F 32.8 °F 35.6 °F 100% 29.92 in 5.6 mi NNE 3.5 mph - N/A   Partly Cloudy
4:50 AM 30.2 °F 25.4 °F 30.2 °F 100% 29.92 in 5.0 mi SW 4.6 mph - N/A   Partly Cloudy
5:20 AM 30.2 °F - 30.2 °F 100% 29.89 in 0.2 mi Calm Calm - N/A Fog Light Freezing Fog
5:50 AM 32.0 °F - 32.0 °F 100% 29.89 in 0.2 mi Calm Calm - N/A Fog Light Freezing Fog
6:20 AM 30.2 °F - 30.2 °F 100% 29.89 in 5.6 mi SSW 2.3 mph - N/A   Unknown
6:50 AM 33.8 °F - 33.8 °F 100% 29.86 in 5.6 mi Variable 2.3 mph - N/A Fog Patches of Fog
7:20 AM 33.8 °F - 33.8 °F 100% 29.86 in 3.1 mi SSW 2.3 mph - N/A Fog Patches of Fog
7:50 AM 37.4 °F 34.9 °F 37.4 °F 100% 29.83 in 4.3 mi Variable 3.5 mph - N/A   Scattered Clouds
8:20 AM 35.6 °F - 35.6 °F 100% 29.83 in 5.0 mi SSW 2.3 mph - N/A   Scattered Clouds
8:50 AM 39.2 °F 37.0 °F 39.2 °F 100% 29.83 in 5.0 mi Variable 3.5 mph - N/A   Partly Cloudy
9:20 AM 44.6 °F 40.2 °F 44.6 °F 100% 29.83 in 5.0 mi East 8.1 mph - N/A   Partly Cloudy
9:50 AM 44.6 °F 40.2 °F 42.8 °F 93% 29.83 in 5.0 mi ENE 8.1 mph - N/A   Partly Cloudy
10:20 AM 46.4 °F 42.4 °F 42.8 °F 87% 29.80 in 6.2 mi ENE 8.1 mph - N/A   Partly Cloudy
10:50 AM 46.4 °F 41.1 °F 44.6 °F 93% 29.77 in 6.2 mi East 11.5 mph - N/A   Partly Cloudy
11:20 AM 48.2 °F - 44.6 °F 87% 29.77 in 6.2 mi East 10.4 mph - N/A   Partly Cloudy
11:50 AM 48.2 °F - 44.6 °F 87% 29.74 in 6.2 mi ENE 12.7 mph - N/A   Partly Cloudy
12:20 PM 48.2 °F - 44.6 °F 87% 29.74 in 6.2 mi ENE 13.8 mph - N/A   Scattered Clouds
12:50 PM 50.0 °F - 46.4 °F 87% 29.71 in 6.2 mi ENE 13.8 mph - N/A   Partly Cloudy
1:20 PM 50.0 °F - 46.4 °F 87% 29.68 in 6.2 mi ENE 13.8 mph - N/A   Partly Cloudy
1:50 PM 51.8 °F - 46.4 °F 82% 29.68 in 6.2 mi ENE 13.8 mph - N/A   Partly Cloudy
2:20 PM 51.8 °F - 46.4 °F 82% 29.65 in 6.2 mi ENE 12.7 mph - N/A   Scattered Clouds
2:50 PM 51.8 °F - 46.4 °F 82% 29.65 in 6.2 mi ENE 11.5 mph - N/A   Partly Cloudy
3:20 PM 51.8 °F - 46.4 °F 82% 29.65 in 6.2 mi ENE 8.1 mph - N/A   Partly Cloudy
3:50 PM 51.8 °F - 46.4 °F 82% 29.65 in 6.2 mi ENE 10.4 mph - N/A   Scattered Clouds
4:20 PM 51.8 °F - 48.2 °F 88% 29.62 in 6.2 mi ENE 10.4 mph - N/A Rain Light Rain
4:50 PM 51.8 °F - 48.2 °F 88% 29.62 in 6.2 mi ENE 12.7 mph - N/A Rain Light Rain
5:20 PM 51.8 °F - 48.2 °F 88% 29.62 in 6.2 mi ENE 10.4 mph - N/A Rain Light Rain
5:50 PM 50.0 °F - 48.2 °F 94% 29.59 in 6.2 mi NE 11.5 mph - N/A Rain Light Rain
6:20 PM 50.0 °F - 48.2 °F 94% 29.59 in 6.2 mi ENE 10.4 mph - N/A Rain Light Rain
6:50 PM 50.0 °F - 48.2 °F 94% 29.59 in 5.0 mi ENE 10.4 mph - N/A Rain Rain
7:20 PM 50.0 °F - 48.2 °F 94% 29.59 in 4.3 mi NE 6.9 mph - N/A Rain Light Rain
7:50 PM 50.0 °F - 48.2 °F 94% 29.59 in 5.0 mi NE 5.8 mph - N/A Rain Light Rain
8:20 PM 50.0 °F - 48.2 °F 94% 29.59 in 5.0 mi NNE 4.6 mph - N/A Rain Light Rain
8:50 PM 50.0 °F - 48.2 °F 94% 29.59 in 5.0 mi North 3.5 mph - N/A Rain Light Rain
9:20 PM 48.2 °F - 48.2 °F 100% 29.59 in 5.0 mi NNW 3.5 mph - N/A Rain Light Rain
9:50 PM 48.2 °F - 48.2 °F 100% 29.62 in 5.6 mi NW 4.6 mph - N/A Rain Light Rain
10:20 PM 48.2 °F - 48.2 °F 100% 29.62 in 6.2 mi NW 3.5 mph - N/A Rain Light Rain
10:50 PM 48.2 °F - 48.2 °F 100% 29.62 in 6.2 mi NNW 3.5 mph - N/A Rain Light Rain
11:20 PM 48.2 °F - 48.2 °F 100% 29.62 in 6.2 mi NNW 3.5 mph - N/A Rain Light Rain
11:50 PM 48.2 °F - 48.2 °F 100% 29.65 in 6.2 mi NNW 3.5 mph - N/A Rain Light Rain